Tallulah, LA

3:38 AM CDT on August 28, 2016 (GMT -0500)
Vicksburg Tallulah Regional

Weather History for KTVR - May, 2014

Change the Weather History Date:

Wednesday, May 21, 2014

  Actual Average Record
Temperature  
Mean Temperature 74 °F 74 °F  
Max Temperature 86 °F 85 °F 94 °F (1962)
Min Temperature 62 °F 63 °F 43 °F (1954)
Degree Days  
Heating Degree Days 0 0  
Month to date heating degree days 25 9  
Since 1 July heating degree days 2890 2350  
Cooling Degree Days 9 9  
Month to date cooling degree days 130 147  
Year to date cooling degree days 250 265  
Growing Degree Days 24 (Base 50)    
Moisture  
Dew Point 63 °F    
Average Humidity 67    
Maximum Humidity 93    
Minimum Humidity 40    
Precipitation  
Precipitation 0.00 in 0.16 in 1.49 in (1966)
Month to date precipitation 1.94 3.55  
Year to date precipitation 26.34 23.89  
Sea Level Pressure  
Sea Level Pressure 30.16 in    
Wind  
Wind Speed 6 mph (South)    
Max Wind Speed 13 mph    
Max Gust Speed 19 mph    
Visibility 9 miles    
Events      
T = Trace of Precipitation, MM = Missing Value Source: NWS Daily Summary

Daily Weather History Graph

Daily Weather History Graph

Search for Another Location

Airport or City:

Trip Planner

Search our weather history database for the weather conditions in past years. The results will help you decide how hot, cold, wet, or windy it might be!

Date:

Astronomy

May. 21, 2014 Rise Set
Actual Time 6:02 AM CDT 7:59 PM CDT
Civil Twilight 5:35 AM CDT 8:26 PM CDT
Nautical Twilight 5:01 AM CDT 9:00 PM CDT
Astronomical Twilight 4:26 AM CDT 9:35 PM CDT
Moon 1:19 AM CDT (5/21) 1:05 PM CDT (5/21)
Length of Visible Light 14h 51m
Length of Day
13h 56m
Waning Gibbous, 48% of the Moon is Illuminated
May 21
Waning Gibbous
May 28
New
Jun 5
First Quarter
Jun 12
Full
Jun 19
Last Quarter

Hourly Weather History & Observations

Time (CDT) Temp. Heat Index Dew Point Humidity Pressure Visibility Wind Dir Wind Speed Gust Speed Precip Events Conditions
12:53 AM 64.0 °F - 60.1 °F 87% 30.13 in 10.0 mi South 5.8 mph - N/A   Clear
1:53 AM 66.9 °F - 62.1 °F 84% 30.12 in 10.0 mi South 8.1 mph - N/A   Clear
2:53 AM 64.9 °F - 61.0 °F 87% 30.12 in 10.0 mi South 5.8 mph - N/A   Clear
4:53 AM 64.9 °F - 62.1 °F 90% 30.13 in 10.0 mi SSE 6.9 mph - N/A   Clear
5:53 AM 64.0 °F - 61.0 °F 90% 30.15 in 9.0 mi Calm Calm - N/A   Clear
6:26 AM 64.0 °F - 62.1 °F 93% 30.15 in 7.0 mi South 4.6 mph - N/A   Mostly Cloudy
6:34 AM 64.0 °F - 62.1 °F 93% 30.15 in 7.0 mi Calm Calm - N/A   Scattered Clouds
6:43 AM 64.9 °F - 63.0 °F 93% 30.15 in 7.0 mi Calm Calm - N/A   Mostly Cloudy
6:53 AM 64.9 °F - 63.0 °F 93% 30.17 in 7.0 mi Calm Calm - N/A   Mostly Cloudy
7:21 AM 66.9 °F - 64.9 °F 93% 30.16 in 8.0 mi South 5.8 mph - N/A   Overcast
7:53 AM 69.1 °F - 66.0 °F 90% 30.19 in 10.0 mi South 8.1 mph - N/A   Mostly Cloudy
8:53 AM 70.0 °F - 66.9 °F 90% 30.21 in 4.0 mi Variable 5.8 mph - N/A   Overcast
9:23 AM 72.0 °F - 66.9 °F 84% 30.19 in 5.0 mi SSW 4.6 mph - N/A   Haze
10:02 AM 75.0 °F - 66.9 °F 76% 30.20 in 7.0 mi Variable 5.8 mph - N/A   Mostly Cloudy
10:32 AM 79.0 °F - 68.0 °F 69% 30.20 in 10.0 mi SSW 5.8 mph - N/A   Scattered Clouds
10:53 AM 80.1 °F 82.3 °F 66.9 °F 64% 30.22 in 10.0 mi South 12.7 mph - N/A   Scattered Clouds
11:53 AM 81.0 °F 83.0 °F 66.0 °F 60% 30.22 in 10.0 mi South 9.2 mph - N/A   Partly Cloudy
1:53 PM 84.0 °F 86.3 °F 66.0 °F 55% 30.19 in 10.0 mi Variable 5.8 mph - N/A   Partly Cloudy
2:53 PM 84.9 °F 85.4 °F 62.1 °F 46% 30.17 in 10.0 mi Variable 4.6 mph - N/A   Clear
3:53 PM 84.9 °F 84.8 °F 60.1 °F 43% 30.15 in 10.0 mi South 6.9 mph - N/A   Clear
4:53 PM 84.9 °F 83.9 °F 57.0 °F 38% 30.14 in 10.0 mi South 9.2 mph - N/A   Clear
5:53 PM 84.9 °F 83.9 °F 57.0 °F 38% 30.13 in 10.0 mi South 12.7 mph - N/A   Clear
6:53 PM 82.0 °F 82.4 °F 60.1 °F 47% 30.12 in 10.0 mi South 6.9 mph - N/A   Clear
7:53 PM 77.0 °F - 62.1 °F 60% 30.12 in 10.0 mi South 4.6 mph - N/A   Clear
8:53 PM 68.0 °F - 63.0 °F 84% 30.11 in 10.0 mi Calm Calm - N/A   Clear
9:53 PM 64.9 °F - 62.1 °F 90% 30.12 in 10.0 mi South 3.5 mph - N/A   Clear
10:53 PM 64.9 °F - 63.0 °F 93% 30.12 in 10.0 mi South 3.5 mph - N/A   Clear
11:53 PM 63.0 °F - 61.0 °F 93% 30.11 in 10.0 mi South 3.5 mph - N/A   Clear